Date String (YYYY-MM-DD hh:mm:ss) UTC,Instrument flags,Ambient pressure (hPa),Sample flow (lpm),Bypass flow (lpm),Sample temperature (°C),Ambient temperature (°C),ASC tube jacket temperature (°C),LED temperature (°C),Box temperature (°C),Sample RH (%),Span deviation,Mass concentration (μg/m³),Mass concentration (μg/m³),Mass concentration (μg/m³)
DateTimeUTC,F1_M11,P_M11,Q1_M11,Q2_M11,T1_M11,T2_M11,T3_M11,T4_M11,T5_M11,U1_M11,ZSPAN_M11,X0_M11,X2_M11,X1_M11
2022-10-04 14:00:00,,0831.2,5.00,0.00,29.1,27.6,00.0,37.9,31.0,22.0,0000.0,0004.85,0003.47,0003.29
2022-10-04 14:01:00,,0831.2,5.01,0.00,29.1,27.6,00.0,37.9,31.0,22.1,0000.0,0004.93,0003.50,0003.31
2022-10-04 14:02:00,,0831.2,4.99,0.00,29.1,27.7,00.0,37.9,31.0,22.1,0000.0,0005.01,0003.54,0003.35
2022-10-04 14:03:00,,0831.2,5.01,0.00,29.1,27.7,00.0,37.9,31.0,22.1,0000.0,0005.03,0003.56,0003.38
2022-10-04 14:04:00,,0831.2,5.00,0.00,29.1,27.7,00.0,37.9,31.0,22.3,0000.0,0005.10,0003.59,0003.41
2022-10-04 14:05:00,,0831.2,4.99,0.00,29.1,27.7,00.0,37.9,31.0,22.4,0000.0,0005.32,0003.64,0003.44
2022-10-04 14:06:00,,0831.2,5.02,0.00,29.1,27.7,00.0,37.9,31.0,22.4,0000.0,0005.41,0003.69,0003.48
2022-10-04 14:07:00,,0831.3,4.99,0.00,29.1,27.7,00.0,37.9,31.0,22.5,0000.0,0005.36,0003.71,0003.51
2022-10-04 14:08:00,,0831.3,5.01,0.00,29.2,27.7,00.0,37.9,31.0,22.6,0000.0,0005.44,0003.74,0003.53
2022-10-04 14:09:00,,0831.3,4.99,0.00,29.2,27.7,00.0,37.9,31.0,22.8,0000.0,0005.53,0003.77,0003.55
2022-10-04 14:10:00,,0831.3,5.01,0.00,29.2,27.7,00.0,37.9,31.0,22.6,0000.0,0005.62,0003.79,0003.57
2022-10-04 14:11:00,,0831.3,5.00,0.00,29.2,27.7,00.0,37.9,31.1,22.3,0000.0,0005.60,0003.82,0003.59
2022-10-04 14:12:00,,0831.4,4.99,0.00,29.2,27.7,00.0,37.9,31.1,22.4,0000.0,0005.58,0003.83,0003.61
2022-10-04 14:13:00,,0831.4,5.01,0.00,29.2,27.7,00.0,37.9,31.0,22.4,0000.0,0005.69,0003.87,0003.63
2022-10-04 14:14:00,,0831.4,5.00,0.00,29.2,27.7,00.0,37.9,31.1,22.3,0000.0,0005.80,0003.88,0003.64
2022-10-04 14:15:00,,0831.5,4.99,0.00,29.2,27.7,00.0,37.9,31.1,22.2,0000.0,0005.79,0003.88,0003.63
2022-10-04 14:16:00,,0831.4,5.01,0.00,29.2,27.7,00.0,37.9,31.1,22.5,0000.0,0005.68,0003.86,0003.62
2022-10-04 14:17:00,,0831.5,5.00,0.00,29.2,27.7,00.0,37.9,31.1,22.6,0000.0,0005.73,0003.86,0003.61
2022-10-04 14:18:00,,0831.5,5.00,0.00,29.2,27.7,00.0,37.9,31.1,22.7,0000.0,0005.69,0003.84,0003.60
2022-10-04 14:19:00,,0831.5,5.00,0.00,29.2,27.7,00.0,37.9,31.1,22.3,0000.0,0005.67,0003.85,0003.60
2022-10-04 14:20:00,,0831.5,5.01,0.00,29.2,27.7,00.0,37.9,31.1,22.4,0000.0,0005.63,0003.84,0003.60
2022-10-04 14:21:00,,0831.5,4.99,0.00,29.2,27.8,00.0,37.9,31.1,22.4,0000.0,0005.49,0003.80,0003.57
2022-10-04 14:22:00,,0831.5,5.00,0.00,29.2,27.8,00.0,37.9,31.1,22.4,0000.0,0005.44,0003.79,0003.56
2022-10-04 14:23:00,,0831.5,5.01,0.00,29.2,27.8,00.0,37.9,31.1,22.3,0000.0,0005.42,0003.77,0003.55
2022-10-04 14:24:00,,0831.5,4.99,0.00,29.2,27.8,00.0,37.9,31.1,22.0,0000.0,0005.53,0003.78,0003.54
2022-10-04 14:25:00,,0831.5,5.00,0.00,29.2,27.8,00.0,37.9,31.1,22.1,0000.0,0005.47,0003.78,0003.53
2022-10-04 14:26:00,,0831.5,5.00,0.00,29.2,27.8,00.0,38.0,31.1,22.1,0000.0,0005.47,0003.77,0003.53
2022-10-04 14:27:00,,0831.5,4.99,0.00,29.2,27.8,00.0,38.0,31.1,22.2,0000.0,0005.46,0003.74,0003.51
2022-10-04 14:28:00,,0831.5,5.00,0.00,29.2,27.8,00.0,38.0,31.1,22.3,0000.0,0006.15,0003.73,0003.49
2022-10-04 14:29:00,,0831.5,4.99,0.00,29.2,27.8,00.0,38.0,31.1,21.9,0000.0,0007.18,0003.76,0003.49
2022-10-04 14:30:00,,0831.5,5.01,0.00,29.2,27.8,00.0,38.0,31.1,21.3,0000.0,0007.75,0003.81,0003.51
2022-10-04 14:31:00,,0831.5,5.00,0.00,29.2,27.8,00.0,38.0,31.1,21.6,0000.0,0007.76,0003.83,0003.54
2022-10-04 14:32:00,,0831.5,4.99,0.00,29.3,27.8,00.0,38.0,31.1,21.7,0000.0,0007.79,0003.87,0003.57
2022-10-04 14:33:00,,0831.6,5.01,0.00,29.3,27.8,00.0,38.0,31.1,21.5,0000.0,0007.87,0003.93,0003.62
2022-10-04 14:34:00,,0831.6,5.00,0.00,29.3,27.8,00.0,38.0,31.1,21.8,0000.0,0007.96,0003.99,0003.68
2022-10-04 14:35:00,,0831.6,4.99,0.00,29.3,27.9,00.0,38.0,31.1,21.7,0000.0,0008.03,0004.05,0003.73
2022-10-04 14:36:00,,0831.6,5.00,0.00,29.3,27.9,00.0,38.0,31.2,22.1,0000.0,0008.12,0004.11,0003.76
2022-10-04 14:37:00,,0831.6,5.00,0.00,29.3,27.9,00.0,38.0,31.2,21.6,0000.0,0008.19,0004.18,0003.81
2022-10-04 14:38:00,,0831.6,5.01,0.00,29.3,27.9,00.0,38.0,31.2,21.6,0000.0,0008.42,0004.24,0003.86
2022-10-04 14:39:00,,0831.6,5.00,0.00,29.3,27.9,00.0,38.0,31.2,22.0,0000.0,0008.47,0004.29,0003.90
2022-10-04 14:40:00,,0831.6,5.00,0.00,29.3,27.9,00.0,38.0,31.2,22.0,0000.0,0008.33,0004.31,0003.94
2022-10-04 14:41:00,,0831.6,5.00,0.00,29.3,27.9,00.0,38.0,31.2,22.1,0000.0,0008.16,0004.30,0003.97
2022-10-04 14:42:00,,0831.6,4.99,0.00,29.3,27.9,00.0,38.0,31.2,21.6,0000.0,0008.35,0004.33,0004.00
2022-10-04 14:43:00,,0831.6,5.01,0.00,29.3,27.9,00.0,38.0,31.2,21.3,0000.0,0008.48,0004.39,0004.04
2022-10-04 14:44:00,,0831.7,5.00,0.00,29.3,27.9,00.0,38.0,31.2,21.3,0000.0,0008.58,0004.42,0004.05
2022-10-04 14:45:00,,0831.7,4.99,0.00,29.3,28.0,00.0,38.0,31.2,21.6,0000.0,0008.61,0004.42,0004.07
2022-10-04 14:46:00,,0831.7,5.01,0.00,29.3,28.0,00.0,38.0,31.2,21.4,0000.0,0008.65,0004.42,0004.07
2022-10-04 14:47:00,,0831.7,4.99,0.00,29.3,28.0,00.0,38.0,31.2,21.2,0000.0,0008.63,0004.43,0004.09
2022-10-04 14:48:00,,0831.7,5.01,0.00,29.4,28.0,00.0,38.0,31.2,21.0,0000.0,0008.81,0004.44,0004.12
2022-10-04 14:49:00,,0831.7,5.00,0.00,29.4,28.0,00.0,38.0,31.2,21.1,0000.0,0009.01,0004.49,0004.14
2022-10-04 14:50:00,,0831.7,4.99,0.00,29.4,28.0,00.0,38.1,31.2,21.4,0000.0,0008.75,0004.50,0004.17
2022-10-04 14:51:00,,0831.7,5.00,0.00,29.4,28.0,00.0,38.1,31.2,21.1,0000.0,0008.40,0004.52,0004.19
2022-10-04 14:52:00,,0831.7,5.00,0.00,29.4,28.0,00.0,38.1,31.2,21.0,0000.0,0008.67,0004.54,0004.20
2022-10-04 14:53:00,,0831.7,5.00,0.00,29.4,28.0,00.0,38.1,31.2,21.0,0000.0,0009.01,0004.54,0004.20
2022-10-04 14:54:00,,0831.7,5.00,0.00,29.4,28.0,00.0,38.1,31.3,21.3,0000.0,0009.07,0004.53,0004.21
2022-10-04 14:55:00,,0831.7,5.00,0.00,29.4,28.0,00.0,38.1,31.3,21.3,0000.0,0009.11,0004.55,0004.22
2022-10-04 14:56:00,,0831.7,4.99,0.00,29.4,28.0,00.0,38.1,31.3,21.3,0000.0,0009.08,0004.57,0004.22
2022-10-04 14:57:00,,0831.7,5.01,0.00,29.4,28.1,00.0,38.1,31.3,21.0,0000.0,0009.01,0004.55,0004.23
2022-10-04 14:58:00,,0831.7,5.00,0.00,29.4,28.1,00.0,38.1,31.3,21.3,0000.0,0009.04,0004.56,0004.23
2022-10-04 14:59:00,,0831.7,5.00,0.00,29.4,28.1,00.0,38.1,31.3,21.4,0000.0,0008.90,0004.54,0004.22
